Rayong, Thailand

7:59 PM +07 on June 25, 2018 (GMT +0700)
U-Taphao International

Weather History for VTBU - September, 2017

Change the Weather History Date:

Wednesday, September 13, 2017

  Actual Average Record
Temperature  
Mean Temperature 82 °F -  
Max Temperature 89 °F 88 °F 93 °F (2000)
Min Temperature 75 °F 77 °F 75 °F (2003)
Cooling Degree Days 17    
Growing Degree Days 32 (Base 50)    
Moisture  
Dew Point 75 °F    
Average Humidity 77    
Maximum Humidity 89    
Minimum Humidity 62    
Precipitation  
Precipitation 0.00 in - - ()
Sea Level Pressure  
Sea Level Pressure 29.79 in    
Wind  
Wind Speed 3 mph ()    
Max Wind Speed 14 mph    
Max Gust Speed 34 mph    
Visibility 5.1 miles    
Events Rain , Thunderstorm    
Averages and records for this station are not official NWS values.
T = Trace of Precipitation, MM = Missing Value Source: Averaged Metar Reports

Daily Weather History Graph

Daily Weather History Graph

Search for Another Location

Airport or City:

Astronomy

Sep. 13, 2017 Rise Set
Actual Time 6:03 AM +07 6:17 PM +07
Civil Twilight 5:42 AM +07 6:38 PM +07
Nautical Twilight 5:17 AM +07 7:03 PM +07
Astronomical Twilight 4:53 AM +07 7:27 PM +07
Moon No Moon Rise 12:18 PM +07 (9/13)
Length of Visible Light 12h 55m
Length of Day
12h 13m
Waning Gibbous, 51% of the Moon is Illuminated
Sep 13
Waning Gibbous
Sep 13
Last Quarter
Sep 20
New
Sep 28
First Quarter
Oct 6
Full

Hourly Weather History & Observations

Time (+07) Temp. Heat Index Dew Point Humidity Pressure Visibility Wind Dir Wind Speed Gust Speed Precip Events Conditions
12:00 AM 82.4 °F 89.5 °F 75.2 °F 79% 29.83 in 5.6 mi North 2.3 mph - N/A   Partly Cloudy
12:30 AM 80.6 °F 86.2 °F 75.2 °F 84% 29.83 in 5.6 mi North 4.6 mph - N/A   Partly Cloudy
1:00 AM 82 °F - 79 °F 87% 29.84 in 6 mi Calm Calm - -   Scattered Clouds
1:00 AM 80.6 °F 85.4 °F 73.4 °F 79% 29.83 in 5.6 mi North 4.6 mph - N/A   Partly Cloudy
1:30 AM 80.6 °F 85.4 °F 73.4 °F 79% 29.83 in 5.6 mi North 4.6 mph - N/A   Partly Cloudy
2:00 AM 80.6 °F 86.2 °F 75.2 °F 84% 29.80 in 5.6 mi North 2.3 mph - N/A   Partly Cloudy
2:30 AM 80.6 °F 86.2 °F 75.2 °F 84% 29.80 in 5.6 mi North 4.6 mph - N/A   Partly Cloudy
3:00 AM 80.6 °F 86.2 °F 75.2 °F 84% 29.80 in 5.6 mi North 4.6 mph - N/A   Partly Cloudy
3:30 AM 80.6 °F 86.2 °F 75.2 °F 84% 29.80 in 5.6 mi North 2.3 mph - N/A   Partly Cloudy
4:00 AM 81 °F - 78 °F 88% 29.80 in 6 mi Calm Calm - -   Scattered Clouds
4:00 AM 80.6 °F 86.2 °F 75.2 °F 84% 29.80 in 5.6 mi North 4.6 mph - N/A   Partly Cloudy
4:30 AM 78.8 °F - 73.4 °F 83% 29.80 in 5.6 mi North 4.6 mph - N/A   Partly Cloudy
5:00 AM 80.6 °F 86.2 °F 75.2 °F 84% 29.80 in 5.6 mi North 4.6 mph - N/A   Partly Cloudy
5:30 AM 78.8 °F - 75.2 °F 89% 29.80 in 5.6 mi North 2.3 mph - N/A   Partly Cloudy
6:00 AM 78.8 °F - 75.2 °F 89% 29.80 in 5.6 mi NW 2.3 mph - N/A   Partly Cloudy
6:30 AM 78.8 °F - 75.2 °F 89% 29.80 in 5.6 mi North 2.3 mph - N/A   Partly Cloudy
7:00 AM 80.6 °F 86.2 °F 75.2 °F 84% 29.83 in 5.6 mi NNE 2.3 mph - N/A   Partly Cloudy
7:30 AM 82.4 °F 89.5 °F 75.2 °F 79% 29.83 in 5.6 mi North 2.3 mph - N/A   Partly Cloudy
8:00 AM 84.2 °F 92.3 °F 75.2 °F 74% 29.83 in 5.6 mi North 2.3 mph - N/A   Partly Cloudy
8:30 AM 86.0 °F 95.1 °F 75.2 °F 70% 29.83 in 6.2 mi WNW 2.3 mph - N/A   Partly Cloudy
9:00 AM 87.8 °F 97.6 °F 75.2 °F 66% 29.86 in 6.2 mi SW 3.5 mph - N/A   Partly Cloudy
9:30 AM 87.8 °F 97.6 °F 75.2 °F 66% 29.86 in 6.2 mi WSW 4.6 mph - N/A   Partly Cloudy
10:00 AM 87 °F - 78 °F 69% 29.87 in 6 mi Calm Calm - -   Partly Cloudy
10:00 AM 87.8 °F 97.6 °F 75.2 °F 66% 29.83 in 6.2 mi SW 6.9 mph - N/A   Scattered Clouds
10:30 AM 84.2 °F 94.1 °F 77.0 °F 79% 29.86 in 0.9 mi West 6.9 mph - N/A Rain , Thunderstorm Heavy Thunderstorms and Rain
11:00 AM 77.0 °F - 71.6 °F 83% 29.89 in 0.5 mi East 11.5 mph 34.5 mph N/A Rain , Thunderstorm Heavy Thunderstorms and Rain
11:30 AM 75.2 °F - 69.8 °F 83% 29.86 in 0.9 mi West 13.8 mph - N/A Rain , Thunderstorm Heavy Thunderstorms and Rain
12:00 PM 77.0 °F - 69.8 °F 78% 29.83 in 3.1 mi NW 4.6 mph - N/A Rain , Thunderstorm Light Thunderstorms and Rain
12:30 PM 78.8 °F - 71.6 °F 78% 29.80 in 5.6 mi NE 4.6 mph - N/A Rain , Thunderstorm Light Thunderstorms and Rain
1:00 PM 87 °F - 76 °F 63% 29.80 in 7 mi West 9.2 mph - -   Scattered Clouds
1:00 PM 80.6 °F 84.6 °F 71.6 °F 74% 29.80 in 6.2 mi NNE 2.3 mph - N/A Rain Light Rain
1:30 PM 78.8 °F - 71.6 °F 78% 29.77 in 6.2 mi Calm Calm - N/A   Scattered Clouds
2:00 PM 87.8 °F 95.6 °F 73.4 °F 62% 29.77 in 6.2 mi NW 2.3 mph - N/A   Scattered Clouds
2:30 PM 87.8 °F 95.6 °F 73.4 °F 62% 29.74 in 5.6 mi NNW 3.5 mph - N/A   Scattered Clouds
3:00 PM 86.0 °F 95.1 °F 75.2 °F 70% 29.74 in 5.0 mi East 3.5 mph - N/A   Scattered Clouds
3:30 PM 86.0 °F 95.1 °F 75.2 °F 70% 29.74 in 5.0 mi SE 3.5 mph - N/A   Scattered Clouds
4:00 PM 87 °F - 77 °F 66% 29.73 in 7 mi Calm Calm - -   Scattered Clouds
4:00 PM 87.8 °F 97.6 °F 75.2 °F 66% 29.71 in 5.0 mi SE 3.5 mph - N/A   Partly Cloudy
4:30 PM 87.8 °F 97.6 °F 75.2 °F 66% 29.71 in 4.3 mi SSE 3.5 mph - N/A   Partly Cloudy
5:00 PM 87.8 °F 97.6 °F 75.2 °F 66% 29.71 in 4.3 mi SE 3.5 mph - N/A   Partly Cloudy
5:30 PM 86.0 °F 95.1 °F 75.2 °F 70% 29.71 in 4.3 mi South 3.5 mph - N/A   Partly Cloudy
6:00 PM 86.0 °F 93.4 °F 73.4 °F 66% 29.71 in 4.3 mi South 4.6 mph - N/A   Partly Cloudy
6:30 PM 86.0 °F 95.1 °F 75.2 °F 70% 29.74 in 4.3 mi WSW 3.5 mph - N/A   Partly Cloudy
7:00 PM 85 °F - 76 °F 68% 29.74 in 7 mi WSW 2.3 mph - -   Scattered Clouds
7:00 PM 84.2 °F 92.3 °F 75.2 °F 74% 29.74 in 4.3 mi WSW 2.3 mph - N/A   Partly Cloudy
7:30 PM 84.2 °F 92.3 °F 75.2 °F 74% 29.74 in 4.3 mi NNE 3.5 mph - N/A   Partly Cloudy
8:00 PM 82.4 °F 89.5 °F 75.2 °F 79% 29.77 in 4.3 mi NNE 2.3 mph - N/A   Partly Cloudy
8:30 PM 82.4 °F 89.5 °F 75.2 °F 79% 29.77 in 4.3 mi Calm Calm - N/A   Partly Cloudy
9:00 PM 80.6 °F 86.2 °F 75.2 °F 84% 29.77 in 4.3 mi North 3.5 mph - N/A   Partly Cloudy
9:30 PM 80.6 °F 86.2 °F 75.2 °F 84% 29.80 in 4.3 mi NNE 3.5 mph - N/A   Partly Cloudy
10:00 PM 82 °F - 78 °F 83% 29.81 in 6 mi Calm Calm - -   Scattered Clouds
10:00 PM 80.6 °F 86.2 °F 75.2 °F 84% 29.80 in 4.3 mi NNE 2.3 mph - N/A   Partly Cloudy
10:30 PM 80.6 °F 85.4 °F 73.4 °F 79% 29.80 in 4.3 mi Calm Calm - N/A   Partly Cloudy
11:00 PM 80.6 °F 86.2 °F 75.2 °F 84% 29.80 in 4.3 mi Calm Calm - N/A   Partly Cloudy
11:30 PM 78.8 °F - 75.2 °F 89% 29.77 in 4.3 mi NNW 2.3 mph - N/A   Partly Cloudy